Wind_Speed
42 44 45 46 48 50 52 53 54 55 55 52 52 55 58 61 63 64 65 65 65 66 68 72 76 78 80 79 78 78 74 66 59 52 45 39 36 35 36 38 39 41
45 46 47 48 49 51 53 55 56 56 55 53 54 57 59 61 63 65 67 66 66 68 70 73 77 80 81 81 81 82 78 67 58 52 46 40 36 34 34 35 36 38
46 47 48 50 51 52 54 56 57 58 56 55 57 60 61 62 64 66 68 68 68 70 72 74 79 82 83 84 84 85 80 67 55 51 46 40 36 34 32 32 33 34
48 48 50 52 53 53 55 57 59 60 58 57 60 62 62 64 65 66 70 71 69 71 74 76 80 84 85 87 88 85 78 65 53 48 44 39 35 33 32 30 30 30
49 50 53 55 56 56 57 59 60 62 60 59 61 64 64 65 66 67 71 72 70 72 76 77 81 85 87 89 89 82 73 62 51 46 42 36 34 33 31 29 29 29
50 52 55 57 57 58 58 60 62 64 63 60 62 65 65 66 68 69 72 72 70 73 76 77 81 86 88 90 85 75 67 59 49 43 40 35 33 33 31 30 29 30
52 54 56 57 58 59 60 61 63 65 63 60 63 65 66 68 69 70 73 72 71 74 76 77 81 87 88 86 80 70 63 57 48 42 40 36 34 34 32 31 31 31
55 56 57 58 59 60 61 62 65 66 62 60 63 65 66 69 70 71 74 72 73 77 78 79 83 87 85 80 77 72 64 58 52 46 42 39 36 35 33 33 32 32
58 59 60 60 60 60 62 63 65 65 61 60 64 66 67 70 70 72 74 74 76 78 79 81 84 85 82 77 77 77 66 59 57 52 46 42 38 37 35 34 33 33
59 60 61 60 60 62 63 63 63 63 61 61 64 66 69 71 70 73 75 75 77 78 79 82 83 83 81 76 78 78 68 61 59 54 50 46 42 39 36 35 35 35
60 61 61 61 62 63 63 63 63 63 61 62 65 67 70 71 70 72 75 75 76 78 80 81 81 81 80 78 80 77 68 62 59 55 52 49 45 41 38 37 37 37
60 61 62 63 64 65 64 64 64 62 61 62 66 69 71 71 70 72 74 73 74 78 79 77 79 82 81 81 84 78 69 67 64 60 55 50 46 42 39 37 37 39
62 63 64 65 66 65 65 66 64 61 61 64 67 70 72 72 71 72 73 72 73 76 75 74 78 82 81 84 86 82 77 74 70 66 61 53 48 43 39 38 41 46
64 65 66 66 66 65 66 66 63 61 62 65 68 71 73 73 74 74 72 71 72 72 70 73 79 81 82 85 87 86 84 81 76 71 66 60 53 48 45 47 50 53
65 67 67 65 63 64 65 64 62 62 64 67 70 73 75 75 75 74 71 71 71 68 69 75 79 81 85 88 89 91 91 90 87 83 77 70 63 56 54 54 54 55
66 65 62 59 60 63 64 62 62 64 67 70 73 75 77 77 76 73 71 72 70 67 70 76 78 81 87 88 90 94 96 96 97 94 89 82 74 67 61 57 56 58
64 60 56 56 61 63 61 61 63 67 70 73 74 76 79 79 76 72 72 73 71 69 72 75 76 82 89 89 89 93 97 98 99 98 94 88 80 74 68 63 62 63
61 58 56 58 62 62 61 64 68 70 72 73 74 78 80 79 76 72 72 73 72 72 73 74 79 86 90 89 89 93 98 99 99 99 96 90 82 76 72 68 68 68
59 59 59 61 63 64 66 69 71 71 70 71 75 78 78 76 74 72 72 73 74 74 75 77 84 89 89 88 90 95 99 100 100 100 97 89 82 76 73 72 72 72
61 61 59 62 68 71 71 70 69 69 69 71 76 77 75 73 71 71 72 73 75 77 78 80 85 89 90 90 93 98 102 102 102 100 95 88 81 77 75 75 75 76
60 59 60 68 73 73 71 69 69 69 70 72 76 77 75 73 71 71 70 70 74 79 81 82 86 90 92 93 97 102 104 103 103 99 92 85 80 78 77 77 78 79
57 60 66 73 73 70 69 70 70 70 72 75 77 78 77 74 72 71 69 70 77 82 82 85 90 93 94 96 100 104 104 103 102 97 89 84 80 79 79 80 80 80
59 67 74 74 71 70 71 71 71 72 75 76 76 77 78 75 73 71 72 75 80 83 84 90 94 97 98 101 104 105 105 103 101 95 88 84 82 82 82 83 83 82
68 73 75 74 73 73 72 72 74 76 78 77 76 77 78 77 74 74 76 79 83 87 92 95 98 100 103 105 107 107 106 104 100 93 88 85 84 85 85 85 85 83
73 74 75 77 76 74 73 75 76 76 77 76 76 78 80 80 79 78 79 82 88 95 99 100 101 104 106 107 108 108 106 104 99 93 88 86 86 86 87 87 87 84
74 74 76 77 75 74 75 75 75 74 73 74 76 79 81 81 81 82 85 89 96 100 101 102 104 106 108 110 110 108 107 104 98 92 89 87 86 87 89 89 88 84
Wind_Direction
319 324 327 326 326 326 327 328 330 333 333 331 329 329 329 330 331 333 333 332 333 334 334 336 338 340 341 341 341 340 337 333 330 326 317 307 297 291 283 276 271 268
316 320 323 324 324 324 324 325 328 331 332 331 330 330 329 329 329 330 331 330 331 332 332 334 337 339 340 340 340 340 337 332 329 326 320 310 301 295 288 280 275 270
314 317 320 321 322 322 322 323 326 329 330 330 330 330 329 329 328 328 330 329 329 330 331 332 335 338 339 339 338 338 336 332 328 326 321 312 304 297 292 286 279 274
313 314 316 318 320 320 320 322 323 326 327 327 329 330 329 328 327 327 328 328 327 329 331 331 334 337 338 337 337 336 335 331 327 325 321 314 307 300 294 289 284 279
311 311 313 316 318 318 319 320 321 323 325 325 327 329 329 327 327 326 327 327 326 328 330 330 333 335 336 336 335 334 334 331 326 326 323 316 310 304 297 294 289 285
311 310 312 314 315 316 318 318 319 322 323 323 325 328 327 326 326 325 326 326 325 327 329 329 332 335 336 337 336 334 334 332 327 326 324 318 313 309 302 298 295 291
311 311 312 313 314 315 316 317 318 320 321 321 323 325 325 325 324 324 325 325 324 325 327 329 332 335 336 338 338 336 334 333 329 326 326 321 316 313 306 301 299 296
311 312 312 313 313 314 315 315 316 319 319 319 321 323 323 323 323 323 324 324 324 326 328 330 332 334 335 336 339 338 334 332 332 329 327 324 319 315 309 304 302 300
311 311 312 312 312 312 312 312 314 317 316 316 319 321 321 321 321 322 323 323 325 326 328 330 331 332 333 333 337 339 333 330 331 329 327 324 320 317 312 307 304 303
310 310 311 310 310 310 310 310 313 315 313 314 317 319 319 319 319 322 323 324 325 327 328 329 329 330 331 332 337 339 335 329 328 326 325 323 319 316 313 310 306 304
308 308 308 307 307 308 308 309 312 313 312 312 315 317 317 318 318 320 322 323 325 327 327 327 328 330 331 332 336 339 339 336 334 329 325 322 320 317 314 312 310 309
306 306 306 305 306 307 307 309 311 311 310 310 313 315 316 316 316 318 321 322 325 327 326 326 328 329 330 332 334 338 341 342 341 336 330 324 321 319 316 315 315 316
305 305 304 305 305 306 307 309 310 309 308 308 311 314 315 315 315 316 319 322 326 327 325 325 327 329 329 331 333 335 337 339 339 338 335 331 327 324 322 321 320 320
304 304 304 304 304 305 307 308 307 306 306 308 310 313 314 314 314 315 318 321 325 325 322 324 327 327 328 330 332 333 335 335 335 335 333 331 328 325 322 321 320 320
303 304 303 302 303 306 307 306 305 306 307 309 310 312 314 313 313 314 316 319 321 321 320 323 325 325 327 328 330 332 333 333 333 333 331 329 326 322 319 318 320 321
304 303 301 300 302 305 305 303 304 305 307 309 309 311 312 312 312 312 314 316 318 317 318 322 323 323 325 327 328 331 331 331 331 330 329 328 326 323 320 319 322 324
304 301 296 298 302 303 302 301 302 303 306 307 308 309 311 311 310 310 312 315 315 315 317 319 320 321 323 325 326 328 328 328 328 328 327 326 324 323 321 321 323 325
301 296 293 297 303 303 301 301 302 303 305 307 308 309 310 310 309 310 312 313 314 315 316 316 316 318 321 322 324 325 326 326 326 326 326 324 323 322 321 322 323 324
296 292 293 298 302 303 301 301 302 303 304 306 308 309 309 308 308 310 311 312 313 315 314 312 313 317 320 321 322 323 323 324 325 325 325 323 322 321 321 321 323 324
291 290 294 299 302 303 301 301 301 302 303 306 309 310 309 307 307 309 311 311 312 314 312 310 311 316 319 320 320 321 322 323 324 325 324 322 321 321 321 321 322 323
290 290 295 301 303 302 300 300 300 300 303 308 311 311 308 305 306 308 309 308 310 313 312 310 312 316 318 319 319 320 321 322 324 324 323 321 320 320 320 320 321 321
289 293 297 301 302 300 300 300 300 300 304 308 310 310 307 305 305 306 306 306 310 313 312 311 314 317 317 317 318 319 320 321 323 323 321 319 318 319 319 319 319 320
288 294 298 299 299 298 298 299 299 301 304 306 308 308 306 304 303 304 305 307 311 312 311 312 315 316 316 316 317 318 319 321 322 321 319 318 317 317 317 317 318 318
292 294 296 296 296 296 297 298 299 301 302 304 305 307 306 302 300 301 305 309 312 312 312 314 315 315 315 315 316 317 319 320 320 319 318 317 316 316 316 316 317 317
296 294 294 295 295 295 296 298 299 300 301 302 303 305 304 301 299 300 304 309 311 312 313 314 314 314 314 315 316 317 318 319 319 318 317 316 315 315 315 315 315 316
294 292 294 294 294 296 298 300 300 299 299 300 301 302 302 300 299 301 304 308 309 310 311 312 313 313 313 314 315 316 317 318 318 316 315 315 314 314 314 314 314 314
Height
10931 10928 10926 10922 10919 10916 10913 10910 10907 10904 10900 10897 10894 10891 10888 10884 10880 10876 10872 10869 10866 10862 10858 10853 10848 10843 10839 10833 10828 10823 10818 10813 10808 10804 10801 10798 10795 10794 10793 10792 10792 10792
10926 10924 10921 10918 10915 10912 10909 10906 10902 10899 10896 10892 10889 10887 10884 10880 10876 10871 10868 10864 10861 10857 10852 10847 10842 10837 10832 10827 10822 10817 10811 10806 10802 10798 10794 10791 10789 10787 10786 10785 10785 10785
10922 10919 10916 10913 10911 10908 10904 10900 10897 10894 10891 10887 10884 10881 10878 10874 10870 10866 10862 10858 10855 10851 10846 10841 10836 10830 10825 10820 10814 10810 10804 10799 10795 10791 10788 10785 10783 10782 10780 10780 10779 10779
10917 10914 10911 10908 10906 10903 10899 10895 10892 10888 10885 10882 10879 10876 10872 10868 10864 10860 10856 10853 10849 10845 10840 10834 10829 10824 10819 10813 10808 10803 10798 10793 10789 10785 10783 10780 10778 10776 10775 10774 10774 10774
10912 10909 10906 10903 10900 10897 10894 10890 10886 10883 10880 10877 10873 10870 10866 10862 10859 10855 10851 10847 10843 10839 10834 10828 10823 10818 10814 10808 10802 10796 10791 10786 10782 10779 10777 10775 10773 10771 10770 10769 10769 10768
10907 10904 10900 10898 10895 10892 10889 10885 10881 10878 10875 10871 10868 10864 10861 10857 10853 10850 10846 10842 10838 10834 10830 10825 10819 10813 10808 10802 10795 10789 10784 10781 10777 10775 10772 10770 10769 10767 10765 10764 10763 10763
10902 10898 10895 10893 10889 10886 10883 10879 10876 10873 10869 10866 10862 10859 10855 10851 10848 10844 10840 10837 10833 10830 10826 10820 10813 10806 10800 10795 10790 10785 10781 10777 10774 10772 10769 10766 10764 10763 10761 10759 10758 10757
10896 10893 10890 10888 10884 10881 10878 10874 10870 10867 10864 10860 10857 10854 10850 10846 10842 10839 10834 10830 10827 10822 10817 10811 10806 10801 10796 10792 10787 10782 10778 10774 10770 10768 10765 10762 10760 10758 10756 10755 10753 10752
10891 10888 10885 10882 10879 10876 10873 10869 10866 10862 10858 10855 10852 10848 10845 10841 10838 10833 10828 10823 10818 10812 10807 10802 10799 10796 10793 10789 10783 10778 10773 10770 10767 10764 10762 10759 10756 10754 10752 10750 10749 10747
10887 10883 10880 10877 10874 10871 10868 10864 10861 10858 10854 10850 10847 10843 10840 10836 10832 10827 10822 10816 10811 10806 10801 10797 10793 10790 10787 10783 10779 10773 10768 10764 10762 10760 10758 10755 10752 10749 10747 10745 10743 10741
10883 10879 10875 10871 10868 10865 10862 10859 10856 10852 10848 10844 10841 10838 10834 10831 10827 10823 10818 10813 10808 10803 10798 10793 10788 10783 10779 10777 10774 10770 10764 10760 10758 10756 10753 10750 10747 10744 10741 10739 10737 10735
10878 10873 10869 10865 10862 10859 10856 10853 10849 10846 10842 10838 10835 10833 10830 10827 10824 10820 10816 10812 10806 10800 10794 10789 10783 10778 10774 10771 10767 10764 10760 10756 10754 10752 10750 10746 10743 10739 10737 10734 10732 10729
10872 10867 10862 10859 10855 10852 10849 10846 10842 10839 10836 10833 10830 10828 10825 10822 10820 10817 10813 10808 10802 10795 10789 10784 10779 10773 10769 10765 10760 10756 10753 10750 10748 10747 10745 10742 10738 10735 10732 10729 10726 10723
10865 10860 10856 10852 10848 10845 10842 10839 10835 10833 10830 10828 10825 10822 10819 10816 10813 10811 10806 10801 10796 10790 10784 10778 10773 10768 10762 10759 10754 10750 10746 10743 10741 10739 10737 10735 10733 10730 10727 10724 10720 10716
10857 10853 10848 10845 10841 10838 10836 10831 10828 10825 10823 10821 10818 10815 10812 10809 10807 10804 10800 10795 10790 10783 10777 10771 10766 10760 10756 10752 10747 10742 10738 10735 10732 10730 10727 10725 10723 10721 10718 10716 10712 10708
10850 10846 10841 10838 10835 10832 10829 10824 10821 10818 10816 10814 10811 10808 10805 10802 10800 10797 10793 10788 10782 10776 10769 10764 10758 10753 10749 10745 10740 10735 10731 10727 10724 10722 10719 10716 10713 10710 10707 10705 10702 10698
10842 10838 10834 10832 10829 10825 10822 10818 10815 10813 10811 10808 10805 10801 10797 10794 10792 10790 10785 10780 10774 10768 10763 10757 10752 10747 10743 10738 10734 10729 10725 10721 10718 10714 10711 10707 10704 10700 10697 10694 10692 10688
10833 10829 10826 10823 10821 10818 10815 10812 10809 10808 10806 10803 10799 10794 10790 10786 10783 10781 10777 10771 10766 10761 10756 10750 10745 10741 10737 10733 10728 10724 10719 10715 10711 10706 10702 10698 10694 10691 10688 10685 10682 10679
10823 10819 10817 10815 10813 10811 10808 10805 10803 10801 10800 10797 10793 10789 10784 10780 10776 10772 10768 10764 10759 10754 10749 10743 10738 10734 10731 10727 10722 10718 10713 10708 10703 10698 10693 10689 10685 10682 10679 10676 10673 10670
10814 10811 10810 10808 10806 10804 10802 10799 10797 10794 10792 10790 10787 10783 10779 10775 10771 10766 10761 10756 10752 10747 10742 10736 10730 10726 10723 10719 10715 10710 10705 10700 10695 10690 10685 10680 10676 10673 10670 10667 10664 10661
10807 10806 10805 10802 10800 10798 10796 10793 10790 10787 10784 10783 10780 10776 10773 10770 10766 10761 10755 10750 10745 10741 10734 10728 10723 10719 10715 10712 10707 10702 10697 10692 10687 10682 10677 10672 10668 10665 10662 10659 10656 10653
10801 10801 10800 10797 10795 10793 10790 10787 10783 10779 10776 10774 10772 10769 10766 10762 10758 10754 10749 10744 10739 10733 10726 10719 10715 10711 10708 10704 10699 10694 10689 10685 10679 10674 10669 10664 10660 10658 10654 10651 10648 10646
10797 10796 10794 10792 10790 10787 10783 10780 10776 10771 10768 10767 10765 10761 10758 10754 10750 10746 10742 10736 10731 10725 10718 10712 10706 10702 10698 10694 10691 10686 10682 10677 10672 10666 10660 10656 10652 10649 10646 10642 10640 10637
10794 10791 10788 10786 10783 10779 10775 10773 10768 10763 10759 10759 10757 10753 10749 10745 10742 10739 10734 10729 10721 10713 10707 10703 10697 10692 10687 10684 10681 10677 10673 10668 10664 10658 10652 10647 10643 10639 10636 10633 10630 10628
10788 10784 10781 10778 10774 10770 10768 10765 10761 10756 10751 10749 10746 10743 10739 10735 10732 10730 10728 10724 10716 10706 10699 10694 10688 10681 10676 10674 10671 10668 10663 10659 10654 10649 10644 10639 10635 10631 10627 10624 10621 10619
10778 10775 10772 10769 10765 10762 10759 10757 10753 10748 10744 10741 10737 10733 10729 10725 10722 10719 10717 10714 10709 10703 10696 10688 10679 10670 10666 10664 10662 10658 10653 10650 10645 10639 10635 10630 10626 10622 10618 10614 10612 10609